Theta_e
308 307 306 307 311 319 325 324 327 326 325 323 322 321 320 318 317 317 317 316 315 313 312 312 312 311 311 308 307 307 307 308 308 307 307 308 309 308 307 306 305 303 301 299
306 304 303 307 307 309 310 320 324 325 325 322 321 320 320 318 316 317 316 316 314 312 311 310 310 309 309 307 307 307 307 307 306 307 308 308 307 306 304 303 301 300 299 298
305 303 306 306 308 308 314 315 325 327 325 322 322 320 321 320 318 316 316 315 313 311 310 309 309 309 307 307 307 307 307 306 306 306 305 305 305 302 301 300 299 298 297 296
305 302 303 302 304 309 312 311 310 313 322 321 321 320 320 319 320 318 315 314 313 312 310 308 307 307 306 307 307 307 306 306 305 304 304 302 301 300 299 299 298 296 296 296
304 303 303 302 301 303 307 310 307 309 312 317 321 321 321 319 319 319 315 314 313 312 310 308 307 306 306 307 307 307 306 305 304 304 302 301 300 299 298 297 296 297 296 295
302 303 303 302 301 301 301 303 304 307 310 310 313 317 322 320 318 316 314 314 313 311 310 307 306 305 306 307 307 306 304 303 303 304 302 300 300 299 297 298 298 297 296 295
302 303 303 302 301 302 305 306 306 306 308 314 317 318 318 319 319 316 314 313 311 310 310 307 305 306 307 306 307 305 303 303 303 301 300 300 299 298 299 298 297 296 295 294
303 303 303 301 301 302 303 303 304 306 310 314 315 314 315 314 320 317 314 312 309 309 309 306 305 306 306 306 306 303 303 302 300 299 299 299 299 299 298 297 295 293 293 293
302 303 303 303 304 304 303 304 312 314 314 314 313 312 312 314 314 318 315 311 309 309 308 306 306 307 307 306 303 302 301 300 299 298 299 299 299 298 295 294 293 292 292 291
304 304 304 304 305 309 309 308 306 305 310 312 312 311 312 313 314 317 315 311 309 308 307 306 306 307 306 304 303 302 301 299 298 298 298 298 298 296 294 293 293 293 292 292
303 303 302 302 302 302 303 304 306 308 309 310 310 312 313 314 314 314 316 311 308 307 307 306 306 306 305 303 302 301 300 298 297 297 297 296 296 295 295 295 296 294 294 294
303 302 302 302 303 303 305 305 305 306 307 308 311 312 313 312 314 315 315 310 307 307 306 305 306 305 303 302 302 300 298 297 298 296 296 295 294 294 294 297 297 296 296 296
301 301 301 302 302 302 303 304 305 305 307 308 309 312 311 312 313 313 313 308 307 306 305 305 305 302 302 303 302 300 298 297 296 296 295 294 294 293 292 293 295 294 294 295
302 302 303 303 303 303 303 304 305 306 306 308 311 309 307 309 310 311 309 307 306 305 304 304 303 302 302 301 300 299 298 297 296 296 295 294 294 294 293 293 292 292 293 293
300 300 301 301 302 302 303 303 303 305 305 308 303 303 303 305 305 305 303 300 301 301 302 301 300 300 300 299 298 297 296 295 295 294 293 293 293 292 292 292 292 291 290 290
300 300 300 300 300 300 301 303 303 303 304 304 300 300 298 298 297 298 299 299 300 300 298 299 298 297 298 298 297 296 295 295 294 293 292 291 291 291 291 290 290 290 289 290
300 300 300 300 301 301 303 302 301 302 300 300 298 297 296 296 297 297 297 298 297 296 297 296 294 295 296 300 296 295 294 292 293 292 292 291 291 291 291 291 291 291 291 291
298 299 300 301 302 303 301 300 299 297 296 296 295 294 294 295 294 292 292 293 292 292 292 292 293 293 295 294 294 293 292 292 292 292 291 291 291 291 291 291 291 290 290 290
298 299 299 300 302 302 301 299 297 295 294 294 293 293 292 292 292 291 291 292 292 291 289 291 295 295 294 296 296 293 291 291 290 290 291 291 291 291 291 290 290 289 289 290
301 301 300 302 301 299 296 293 293 293 293 292 292 292 292 292 292 292 292 292 291 289 289 292 296 298 296 293 294 293 292 291 290 289 289 290 289 289 289 289 289 289 289 289
295 302 301 298 296 294 294 293 293 293 292 292 293 293 293 292 293 294 293 291 289 291 292 292 291 289 290 291 291 290 289 289 289 289 289 289 289 289 289 289 289 289 289 289
292 293 294 294 293 292 291 291 291 291 291 290 290 291 290 289 289 290 291 289 287 289 289 289 289 289 289 289 289 289 288 288 288 288 288 289 289 289 289 289 289 290 290 290
291 290 289 289 289 289 290 290 290 290 290 289 290 290 289 289 289 289 288 287 288 288 288 288 289 289 289 289 289 289 288 288 288 289 289 289 289 290 290 290 290 290 290 289
290 290 290 289 289 288 287 286 286 286 286 286 286 287 288 288 287 287 287 288 288 288 288 288 288 288 289 289 289 289 289 289 289 289 290 290 290 290 290 290 290 289 289 289
289 289 289 289 288 288 287 287 287 286 286 286 286 286 286 288 288 287 287 287 287 287 287 288 289 289 289 288 288 289 290 290 290 290 290 290 289 289 289 289 288 288 288 288
288 288 288 288 288 288 288 287 287 287 286 286 286 285 285 285 286 287 287 287 287 286 286 287 287 287 287 287 288 288 288 288 288 288 289 288 288 288 288 288 288 288 288 287
288 288 288 287 286 287 287 287 287 287 286 286 286 285 285 286 286 286 286 286 286 286 287 287 287 287 287 286 287 287 287 287 288 288 288 288 288 287 287 287 287 287 286 286
Wind_Speed
9 14 20 17 13 16 30 30 23 34 32 25 21 8 2 3 3 6 10 13 15 15 15 16 21 25 27 28 31 33 32 31 28 29 29 30 29 26 25 23 22 19 16 13
18 19 17 24 22 19 24 24 30 34 34 22 12 13 13 8 8 10 11 13 13 14 16 18 22 26 29 31 33 35 33 31 33 32 34 31 30 27 25 22 20 19 16 15
19 9 5 12 17 15 10 14 24 25 40 16 23 18 18 15 10 13 12 14 17 17 18 18 28 32 29 32 34 33 33 33 35 37 32 31 30 27 25 23 22 20 19 16
15 6 14 13 11 9 11 17 15 27 36 19 23 17 13 13 17 17 13 13 15 15 15 24 27 29 31 32 32 31 30 32 36 36 34 30 27 25 25 25 23 22 19 17
7 11 17 21 14 15 11 20 12 19 32 22 21 22 24 23 23 19 17 16 17 24 26 28 33 35 34 34 35 34 33 32 33 40 36 34 29 29 26 24 22 21 19 19
9 10 10 17 11 18 21 23 29 21 26 18 10 14 20 15 14 13 19 18 18 26 30 31 33 36 37 35 35 32 33 34 35 42 41 37 36 33 29 26 24 21 21 19
18 15 10 21 15 11 15 18 17 17 22 9 8 9 20 16 13 18 20 19 22 28 26 37 40 42 37 37 35 35 35 41 38 39 40 39 38 35 32 26 24 23 22 22
13 12 16 18 10 15 19 32 20 21 21 15 14 13 13 17 19 14 18 17 23 19 24 39 43 45 39 36 37 39 42 38 34 39 38 39 39 34 30 29 27 25 21 21
12 9 15 13 12 13 21 20 8 10 13 14 17 12 13 12 16 17 20 18 25 22 24 34 43 45 37 40 42 42 40 36 36 38 38 38 37 34 29 28 23 20 20 19
9 18 19 22 12 11 11 16 14 16 18 19 21 18 16 14 14 15 19 20 20 21 22 23 39 40 42 44 44 44 39 31 32 35 34 35 33 32 28 25 22 21 21 20
15 20 21 23 21 16 16 19 21 18 17 21 22 20 16 15 15 15 19 18 21 22 22 26 40 40 41 45 46 39 38 31 31 31 34 30 29 33 29 29 30 26 25 24
14 16 13 21 15 13 15 18 20 20 18 19 19 18 14 15 13 15 18 20 21 23 24 32 39 39 45 51 52 44 34 31 30 29 27 27 27 23 21 26 26 23 20 22
22 23 22 22 15 17 18 21 20 18 21 23 20 16 10 16 11 14 18 23 24 25 33 39 39 38 44 49 50 47 38 30 28 29 25 25 24 24 21 16 16 16 14 12
22 20 27 25 18 18 20 21 19 19 17 21 18 11 10 14 9 14 19 23 30 31 33 37 37 38 44 46 49 45 42 39 36 31 29 27 25 23 20 21 19 20 17 15
24 21 21 18 18 17 18 19 23 20 18 18 11 9 10 10 11 11 10 20 24 27 31 35 34 35 43 47 47 40 37 33 32 29 27 26 24 21 19 18 16 14 14 15
20 22 21 20 23 23 21 21 19 16 10 16 8 7 6 10 9 8 17 30 22 18 24 30 32 38 47 49 47 38 34 36 35 30 28 25 23 19 17 16 15 13 12 11
18 20 16 15 19 21 19 18 14 7 11 12 12 12 13 13 13 12 10 19 24 25 34 38 29 36 39 50 41 32 31 30 31 27 25 24 23 20 18 17 15 14 13 13
20 21 20 19 18 14 10 8 9 10 9 10 12 14 14 13 15 13 12 21 28 28 28 32 37 38 40 37 36 33 31 29 26 24 23 21 19 19 17 16 14 11 12 12
21 21 20 20 16 10 9 9 6 6 7 9 13 13 14 14 15 15 23 18 17 20 20 35 44 41 37 35 36 35 30 26 21 19 19 19 16 14 13 11 11 12 12 12
17 17 17 11 9 12 10 7 9 8 8 12 15 16 16 16 20 20 23 13 18 22 28 39 41 36 35 36 36 33 30 28 23 19 18 16 16 16 14 13 12 11 13 15
12 6 10 12 9 10 12 10 11 12 10 13 16 17 17 15 25 27 20 13 17 32 36 35 34 30 31 31 29 28 26 23 21 18 17 16 16 13 13 13 14 15 16 16
11 11 10 9 11 11 11 11 12 10 12 14 14 14 15 15 19 21 21 20 23 30 27 27 28 30 30 29 28 26 24 21 18 16 15 15 16 16 15 16 16 16 15 16
9 10 12 13 14 13 12 13 16 16 13 12 11 12 11 12 16 12 10 15 26 27 25 24 29 29 27 26 25 23 22 21 19 18 18 18 18 18 17 16 14 13 12 15
9 10 10 12 13 15 17 14 21 22 22 23 21 17 17 12 18 20 24 25 27 26 24 27 27 25 22 22 22 21 20 19 17 18 17 15 15 16 14 13 12 12 14 15
10 11 11 13 13 10 14 16 19 19 21 22 21 20 19 15 16 20 22 24 28 26 28 27 25 22 21 22 21 20 19 18 17 18 18 17 15 13 12 12 13 14 13 13
9 8 8 13 11 10 12 15 9 11 14 11 15 15 18 19 22 24 22 22 24 25 22 21 18 18 19 19 18 16 16 15 16 15 15 14 13 12 12 13 13 12 12 10
8 9 8 9 14 14 14 13 9 8 13 15 14 16 18 19 20 20 21 19 16 17 19 20 19 19 18 18 16 15 14 14 14 15 14 14 14 14 13 13 13 13 12 12
Wind_Direction
314 328 332 315 312 270 223 218 220 234 239 233 247 270 268 274 183 179 181 182 190 185 179 171 167 163 161 156 154 153 150 148 147 150 150 149 149 151 152 150 146 143 140 133
283 287 286 293 290 290 289 259 224 244 252 239 236 228 229 222 207 216 205 200 188 181 180 174 171 168 161 157 156 154 150 149 151 151 154 152 149 151 152 150 146 143 138 135
265 277 306 283 268 248 269 293 241 240 244 234 244 223 228 234 226 224 213 201 185 186 184 178 177 171 166 160 155 155 152 152 152 152 149 151 153 155 155 153 149 145 143 144
268 299 260 248 231 260 249 269 283 292 266 257 257 255 243 222 229 225 205 197 198 190 184 182 175 169 161 160 157 154 153 154 155 153 149 154 155 157 153 156 154 151 150 151
245 239 275 273 249 247 247 274 272 284 288 286 288 280 271 245 233 228 205 197 195 194 187 175 174 170 163 161 160 158 159 160 159 153 153 158 159 158 156 158 157 156 158 158
226 247 251 270 255 224 248 261 265 252 268 288 278 269 263 258 223 214 202 206 199 186 179 176 173 167 164 165 165 165 163 161 162 161 163 163 163 162 164 164 159 163 167 168
222 239 255 258 261 230 226 252 253 248 265 272 279 285 303 253 229 202 204 207 189 180 180 178 172 168 169 168 173 168 159 160 166 168 166 166 165 166 163 161 165 170 173 182
223 227 242 236 230 219 225 243 258 250 246 250 255 276 296 307 259 218 201 196 186 184 183 176 174 173 171 174 167 157 158 160 168 167 166 167 166 164 165 169 171 175 177 181
192 214 237 235 199 209 229 260 262 235 252 251 260 260 281 283 298 226 203 197 193 187 176 179 178 179 173 166 158 156 154 162 165 167 169 168 165 165 167 175 174 176 177 179
223 235 242 251 220 220 246 258 266 271 265 264 269 274 278 280 278 264 211 194 187 180 176 176 181 180 173 158 157 154 150 163 162 162 165 166 168 171 172 175 179 180 186 188
243 249 255 264 255 252 248 261 272 268 255 254 264 262 261 270 273 280 220 194 180 178 177 177 175 172 162 156 153 150 148 165 166 165 164 165 172 176 181 188 190 186 193 192
238 249 245 260 272 260 246 250 263 267 267 266 259 263 262 263 272 271 214 192 181 180 175 172 170 166 160 156 153 148 156 167 167 163 163 168 169 173 189 198 201 205 208 199
245 249 256 264 272 266 266 270 275 268 271 270 266 257 251 264 268 253 203 188 181 176 168 167 165 163 161 156 151 151 165 165 163 158 168 169 168 169 166 178 189 207 195 190
245 256 260 261 261 265 266 269 276 275 276 271 260 253 256 253 252 218 191 189 175 164 160 163 158 163 159 156 150 159 163 168 164 170 177 175 171 169 170 167 178 191 193 194
256 250 252 263 266 265 268 272 271 268 263 258 234 236 227 187 198 185 151 138 143 147 150 148 151 152 154 151 147 159 159 163 163 173 174 169 166 167 165 169 174 169 186 202
259 256 261 258 261 264 262 262 256 249 251 241 208 186 112 108 103 120 139 140 138 147 141 143 148 149 152 151 149 154 159 162 166 167 163 162 164 162 166 170 165 175 182 190
269 269 265 262 258 261 257 248 232 238 232 187 164 145 118 114 108 110 115 127 125 132 136 137 135 143 148 150 155 152 153 159 163 161 161 163 166 168 171 169 177 189 208 220
267 263 259 255 262 261 238 178 165 166 167 154 149 126 129 132 122 113 110 114 113 106 117 128 135 132 134 147 147 147 153 158 159 157 159 161 164 163 172 178 186 187 208 220
269 256 250 248 244 215 175 159 146 135 138 136 118 111 104 116 115 112 117 126 125 118 119 127 136 139 141 152 162 158 153 146 147 151 156 157 158 171 180 184 197 202 213 213
270 255 249 231 166 148 134 128 120 113 115 117 114 114 121 117 117 114 109 103 110 111 117 113 125 133 148 157 155 150 146 147 147 153 148 153 161 169 173 182 192 207 216 219
352 297 162 143 126 125 126 134 121 122 124 124 124 126 120 113 113 116 102 98 90 108 116 124 131 135 144 146 146 147 149 145 142 148 155 160 166 170 185 195 201 206 213 216
11 44 64 89 103 103 103 103 99 97 99 98 100 102 96 89 86 83 107 123 122 126 128 131 138 144 142 142 144 144 143 144 147 154 161 166 175 180 189 198 201 207 212 218
26 57 73 79 82 80 79 86 89 89 91 91 86 86 86 91 109 114 110 119 127 129 129 132 142 142 143 143 145 146 152 158 161 165 172 179 185 188 194 196 199 204 208 218
40 53 71 83 81 73 65 59 71 76 79 79 77 83 98 99 77 95 118 125 127 127 129 135 137 140 144 149 153 156 162 163 165 172 176 180 189 191 190 189 194 201 209 209
38 47 58 71 79 83 89 90 83 81 83 79 75 71 75 88 109 119 121 123 128 125 129 136 136 141 152 153 157 160 158 159 162 169 174 178 183 185 189 194 193 193 200 198
61 67 67 69 79 85 87 91 94 92 103 100 90 94 102 107 109 113 117 123 129 128 129 137 144 152 152 152 157 157 158 161 168 173 176 179 181 182 180 180 178 181 188 190
63 58 76 73 62 69 84 101 103 102 104 107 104 106 108 108 110 112 116 120 124 128 137 143 146 148 154 158 161 164 164 165 165 164 167 168 169 170 174 176 175 172 178 179